Location: Stigler
(35.2540°N, 95.1230°W)
Time: 11:37:36
(UTC-05:00)

Daily predictions for brighter satellites

Satellite Brightness Start Highest point End
(mag) Time Altitude Azimuth Time Altitude Azimuth Time Altitude Azimuth
Cosmos 2278 3.9 20:42:32 10° NNW 20:48:08 60° ENE 20:53:44 10° SSE
Meteor 1-27 Rocket 4.2 20:43:27 10° SSW 20:49:04 69° W 20:54:37 10° N
IUS-9 SRM-1 4.0 20:47:27 10° SW 20:50:31 32° SSE 21:00:09 10° E
Cosmos 724 4.3 20:44:45 10° SSW 20:50:31 90° ESE 20:56:21 10° NNE
Cosmos 1459 Rocket 3.9 20:44:41 10° S 20:50:41 71° E 20:56:41 10° N
Cosmos 2151 Rocket 4.1 20:48:36 10° N 20:52:52 43° E 20:57:03 10° SSE
GPS 2-04 Rocket1 2.9 20:50:21 10° W 20:54:34 84° N 20:58:52 10° E
Cosmos 2173 Rocket 4.1 20:50:05 10° S 20:56:26 79° E 21:02:49 10° N
Cosmos 2061 Rocket 4.1 20:50:13 10° S 20:56:33 65° E 21:02:50 10° NNE
Cosmos 332 Rocket 3.8 20:53:10 10° SSW 20:57:57 87° ESE 21:02:48 10° NNE
Lacrosse 4 Rocket 3.4 20:55:34 10° NW 20:59:27 29° WSW 21:03:18 10° SSW
Okean 3 4.0 20:56:15 10° SSE 21:00:15 39° E 21:04:15 10° NNE
ATLAS 3B R/B 2.8 20:56:56 10° SSW 21:04:02 60° ESE 21:10:54 10° NE
Cosmos 2100 Rocket 4.3 21:01:45 10° S 21:08:06 77° W 21:14:26 10° N
Cosmos 1300 Rocket 3.9 21:04:55 10° N 21:09:07 44° E 21:13:15 10° SSE
Cosmos 1939 Rocket 2.9 21:05:38 10° SSE 21:09:41 80° ENE 21:13:49 10° N
Delta 7925 Rocket 4.5 21:07:45 10° SW 21:11:20 22° SSE 21:14:12 13° SE
Okean 1 4.2 21:09:04 10° SSE 21:12:38 30° E 21:16:13 10° NNE
Cosmos 44 Rocket 3.6 21:10:44 10° NNW 21:15:53 62° ENE 21:20:20 14° SE
Spot 2 Rocket 3.7 21:11:34 10° SSE 21:16:26 52° ENE 21:21:20 10° N
Cosmos 2016 Rocket 3.9 21:11:42 10° S 21:17:46 81° E 21:23:54 10° N
Cosmos 1697 Rocket 2.7 21:16:00 10° NNW 21:21:42 84° ENE 21:27:06 11° SSE
SJ-11-01 4.3 21:17:13 10° SSE 21:21:54 75° ENE 21:26:38 10° N
Cosmos 1656 4.2 21:16:42 10° NNW 21:22:15 61° WSW 21:27:41 10° S
Shenzhou-11 Module 4.1 21:19:50 10° WNW 21:22:24 26° NNW 21:24:58 10° NE
Tsikada Rocket 4.4 21:17:16 10° N 21:23:24 46° E 21:28:50 13° SSE
Meteor 1-18 Rocket 4.4 21:19:19 10° S 21:24:59 59° E 21:30:45 10° NNE
Resurs 1-3 3.6 21:20:36 10° SSE 21:24:59 87° W 21:29:23 10° NNW
ISS -4.0 21:23:06 10° SW 21:26:21 77° SE 21:29:37 10° NE
Cosmos 1500 3.2 21:22:36 10° N 21:26:27 69° E 21:29:50 13° SSE
Cosmos 1725 Rocket 3.9 21:21:16 10° S 21:27:23 70° E 21:33:33 10° NNE
Cosmos 909 Rocket 4.2 21:22:16 10° NNW 21:28:41 84° ENE 21:35:10 14° SSE
Cosmos 1570 Rocket 4.2 21:26:14 10° S 21:31:24 54° ESE 21:36:36 10° NNE
USA 238 DEB 4.0 21:26:24 10° SW 21:33:14 74° WNW 21:40:11 10° NNE
USA 238 4.0 21:26:31 10° SW 21:33:20 74° WNW 21:40:17 10° NNE
Cosmos 1980 Rocket 2.4 21:27:54 10° NNW 21:33:30 58° ENE 21:37:31 19° SE
Cosmos 1812 4.1 21:30:27 10° SSW 21:34:03 39° W 21:37:41 10° N
YAOGAN 6 4.0 21:30:45 10° SSW 21:34:13 37° W 21:37:41 10° NNW
Cosmos 1666 3.7 21:38:02 10° NNE 21:41:27 29° ENE 21:42:32 25° ESE
OAO 1 Rocket 4.5 21:37:28 10° WSW 21:42:42 60° SSE 21:47:11 14° E
Cosmos 1743 3.8 21:39:35 10° NNE 21:42:54 27° ENE 21:43:46 25° ESE
Cosmos 304 Rocket 3.7 21:41:21 10° SSW 21:46:10 86° ESE 21:51:00 10° NNE
H-2A R/B 2.8 21:44:12 23° ESE 21:46:26 33° ENE 21:50:53 10° N
Abrixas rocket 2.2 21:43:21 10° SW 21:46:29 51° SE 21:48:33 19° ENE
ERS-2 3.9 21:48:46 10° SSW 21:52:01 29° W 21:55:17 10° NW
DNEPR-1 R/B 4.0 21:49:27 10° SW 21:53:34 64° WNW 21:58:07 10° NNE
Iridium 2 4.3 21:53:44 33° ESE 21:54:20 35° E 21:57:50 10° NNE
ATLAS CENTAUR R/B 1.6 21:52:36 10° NNW 21:57:13 80° ENE 21:59:24 32° SE
Cosmos 2208 Rocket 3.9 21:52:46 10° SSW 21:57:57 85° ESE 22:03:09 10° NNE
deb Kosmos-1763 4.2 21:57:32 39° SSE 21:58:24 49° ESE 22:02:00 10° NNE
Cosmos 1975 Rocket 3.0 21:59:35 30° SSE 22:01:33 60° E 22:05:49 10° NNE
Cosmos 1242 Rocket 3.2 21:58:48 10° N 22:02:14 37° ENE 22:02:29 37° E
Cosmos 1378 Rocket 4.2 21:58:47 10° SSW 22:03:01 54° W 22:07:15 10° N
Cosmos 1898 Rocket 4.1 21:58:42 10° N 22:03:42 41° ENE 22:05:32 31° ESE
Okean 1 Rocket 3.1 21:59:51 10° N 22:04:12 73° W 22:06:40 25° S
EPKM 3.9 22:01:59 10° WSW 22:05:17 18° SSW 22:05:17 18° SSW
Tiangong 2 1.2 22:02:16 10° WSW 22:05:24 71° NNW 22:06:44 31° NE
Resurs 01 Rocket 3.4 22:03:07 10° SSW 22:06:56 29° W 22:10:46 10° NW
NOSS 3-2 (A) 3.7 22:01:27 10° SW 22:07:13 69° WNW 22:13:35 10° NNE
Cosmos 1814 Rocket 4.3 22:06:16 33° SSE 22:08:02 45° ESE 22:13:02 10° NNE
ERS-1 Rocket 3.3 22:07:59 34° ESE 22:09:38 47° ENE 22:14:26 10° N
NOSS 3-2 (C) 3.3 22:04:45 10° SSW 22:10:33 89° ESE 22:16:57 10° NNE
BREEZE M DEB (TANK) 4.1 22:01:42 10° NW 22:10:56 38° NNE 22:13:13 21° ENE
Cosmos 2233 Rocket 4.0 22:05:12 10° S 22:11:20 82° W 22:17:32 10° N
MetOp-A 4.1 22:08:47 31° SSE 22:11:28 79° ENE 22:16:49 10° N
Cosmos 1975 2.8 22:08:41 10° N 22:12:44 84° W 22:14:02 42° S
BREEZE-M DEB (TANK) 2.4 22:12:45 10° NW 22:14:30 40° WNW 22:14:30 40° WNW
Atlas Centaur 2 1.9 22:12:09 10° WSW 22:14:50 34° SSW 22:14:50 34° SSW
ATLAS CENTAUR R/B 4.1 22:11:02 10° SW 22:16:51 80° NW 22:35:04 10° NE
CSL-04 DEB 4.4 22:18:19 52° SE 22:19:14 73° ENE 22:23:24 10° N
Cosmos 2322 Rocket 2.7 22:16:58 10° N 22:22:20 45° ENE 22:23:50 37° ESE
Cosmos 1544 Rocket 4.3 22:18:39 10° NNE 22:22:45 36° E 22:22:46 36° E
Meteor 1-12 Rocket 4.4 22:21:17 10° N 22:27:14 82° W 22:30:07 33° S
SL-16 R/B 2.4 22:23:19 10° NNW 22:28:53 55° ENE 22:30:19 43° ESE
Cosmos 990 Rocket 4.2 22:27:37 10° N 22:32:43 54° ENE 22:33:34 48° ESE
ARGOS 3.4 22:30:47 32° S 22:33:14 63° WSW 22:38:37 10° NNW
SPOT 5 3.0 22:33:18 46° ENE 22:33:22 46° ENE 22:37:37 10° N
Timation 2 Rocket 4.2 22:28:21 10° SSW 22:34:15 65° WNW 22:40:14 10° NNE
GPS 2-04 Rocket1 3.0 22:30:06 10° W 22:34:05 58° SSW 22:34:05 58° SSW
Cosmos 1536 Rocket 4.4 22:35:35 36° ENE 22:35:35 36° ENE 22:38:57 10° NNE
Landsat 7 4.3 22:39:40 42° ENE 22:39:46 42° ENE 22:44:15 10° N
Helios 1A 3.1 22:40:33 61° ENE 22:40:33 61° ENE 22:44:27 10° N
SJ 16-02 3.4 22:39:43 10° NNE 22:42:00 16° ENE 22:42:00 16° ENE
CENTAUR R/B 2.3 22:42:22 40° S 22:44:32 69° ESE 22:51:04 10° NE
Cosmos 2298 Rocket 4.1 22:43:43 10° N 22:48:57 60° ENE 22:49:22 58° E
Cosmos 2034 Rocket 4.0 22:49:35 54° SE 22:50:29 59° E 22:56:31 10° NNE
Cosmos 1513 Rocket 4.3 22:51:45 54° S 22:53:15 80° E 22:59:23 10° N
Cosmos 2084 4.2 22:54:02 21° WSW 22:56:37 49° NW 23:00:39 10° NNE
Cosmos 1464 Rocket 4.0 22:54:32 44° S 22:56:45 86° W 23:03:11 10° N
Terra 2.5 22:58:53 41° ENE 22:58:53 41° ENE 23:02:55 10° N
USA 32 4.1 22:54:32 10° N 22:59:45 70° W 23:00:37 58° SW
Gbstr 26 Del rocket 4.4 22:53:57 10° NW 23:02:10 88° NE 23:04:27 52° SE
Lacrosse 5 rocket 3.9 23:00:48 10° N 23:02:38 12° NNE 23:03:33 12° NE
ISS -0.4 23:01:27 10° WNW 23:03:11 14° NNW 23:04:55 10° N
SL-19 R/B 4.4 23:03:43 62° ESE 23:04:31 69° ENE 23:10:47 10° N
Meteor 1-23 Rocket 4.1 23:06:40 73° S 23:07:15 89° W 23:12:51 10° N
Cosmos 1937 Rocket 3.5 23:02:48 10° NNW 23:07:55 69° WSW 23:08:06 68° WSW
CARTOSAT-1 4.3 23:08:56 47° NNE 23:08:56 47° NNE 23:12:14 10° N
Cosmos 2360 Rocket 2.5 23:09:20 10° NNW 23:14:49 53° ENE 23:14:49 53° ENE
Cosmos 1980 Rocket 4.4 23:13:37 10° WNW 23:16:54 16° W 23:19:19 12° SW
Cosmos 841 Rocket 4.2 23:17:56 38° WSW 23:19:28 49° WNW 23:24:34 10° N
CZ-4C R/B 4.4 23:15:08 10° N 23:21:01 26° NE 23:24:16 20° E
Cosmos 540 Rocket 3.5 23:21:34 72° N 23:21:34 72° N 23:26:15 10° NNE
Cosmos 2219 Rocket 4.1 23:17:42 10° NNE 23:21:15 17° NE 23:21:44 17° ENE
SPOT 1/Viking Rocket 3.9 23:21:23 56° WSW 23:21:31 56° W 23:26:36 10° NNW
H-2A R/B 3.7 23:24:49 21° WSW 23:25:53 22° W 23:29:42 10° NW
Cosmos 2333 Rocket 4.1 23:23:32 10° NNE 23:27:12 17° NE 23:27:46 17° ENE
Helios 1B rocket 3.8 23:25:36 10° N 23:29:07 36° WNW 23:29:07 36° WNW
CZ-2C R/B 3.2 23:25:04 10° NNE 23:29:29 49° ENE 23:29:29 49° ENE
COSMOS 2428 4.0 23:26:01 10° N 23:30:47 29° ENE 23:30:47 29° ENE
Cosmos 1025 Rocket 4.4 23:36:47 35° N 23:36:47 35° N 23:39:21 10° N
